Norfolk, NE

3:17 PM CST on December 11, 2019 (GMT -0600)
Stefan Memorial

Weather History for KOFK - October, 2019

Change the Weather History Date:

Friday, October 4, 2019

  Actual Average Record
Temperature  
Mean Temperature 46 °F 56 °F  
Max Temperature 54 °F 69 °F 92 °F (1938)
Min Temperature 37 °F 43 °F 25 °F (1935)
Degree Days  
Heating Degree Days 19 10  
Month to date heating degree days 63 38  
Since 1 July heating degree days 93 180  
Cooling Degree Days 0 1  
Month to date cooling degree days 0 4  
Year to date cooling degree days 949 910  
Moisture  
Dew Point 41 °F    
Average Humidity 79    
Maximum Humidity 92    
Minimum Humidity 66    
Precipitation  
Precipitation 0.03 in 0.08 in 2.15 in (2016)
Month to date precipitation 1.47 0.34  
Year to date precipitation 23.50 23.56  
Snow  
Snow 0.00 in 0.00 in - ()
Month to date snowfall 0.0 0.0  
Since 1 July snowfall 0.0 T  
Since 1 September snowfall 0.0 T  
Snow Depth 0.00 in    
Sea Level Pressure  
Sea Level Pressure 30.24 in    
Wind  
Wind Speed 12 mph (SE)    
Max Wind Speed 21 mph    
Max Gust Speed 29 mph    
Visibility 10 miles    
Events Rain    
T = Trace of Precipitation, MM = Missing Value Source: NWS Daily Summary

Daily Weather History Graph

Daily Weather History Graph

Search for Another Location

Airport or City:

Astronomy

Oct. 04, 2019 Rise Set
Actual Time 7:29 AM CDT 7:06 PM CDT
Civil Twilight 7:01 AM CDT 7:34 PM CDT
Nautical Twilight 6:29 AM CDT 8:06 PM CDT
Astronomical Twilight 5:56 AM CDT 8:39 PM CDT
Moon 2:08 PM CDT (10/4) 11:31 PM CDT (10/4)
Length of Visible Light 12h 32m
Length of Day
11h 36m
Waxing Crescent, 40% of the Moon is Illuminated
Oct 4
Waxing Crescent
Oct 5
First Quarter
Oct 13
Full
Oct 21
Last Quarter
Oct 27
New

Hourly Weather History & Observations

Time (CDT) Temp. Windchill Dew Point Humidity Pressure Visibility Wind Dir Wind Speed Gust Speed Precip Events Conditions
12:56 AM 39.9 °F 37.8 °F 37.0 °F 89% 30.38 in 10.0 mi East 3.5 mph - N/A   Clear
1:56 AM 39.0 °F 36.8 °F 36.0 °F 89% 30.39 in 10.0 mi East 3.5 mph - N/A   Clear
2:56 AM 37.9 °F 34.4 °F 36.0 °F 93% 30.40 in 10.0 mi ESE 4.6 mph - N/A   Clear
3:56 AM 37.9 °F 34.4 °F 35.1 °F 89% 30.39 in 10.0 mi SE 4.6 mph - N/A   Partly Cloudy
4:56 AM 37.0 °F 33.3 °F 35.1 °F 93% 30.39 in 10.0 mi ESE 4.6 mph - N/A   Clear
5:56 AM 37.0 °F 32.4 °F 35.1 °F 93% 30.38 in 10.0 mi ESE 5.8 mph - N/A   Clear
6:56 AM 37.9 °F 32.1 °F 36.0 °F 93% 30.37 in 10.0 mi ESE 8.1 mph - N/A   Scattered Clouds
7:56 AM 39.0 °F 34.0 °F 37.0 °F 93% 30.38 in 10.0 mi ESE 6.9 mph - N/A   Overcast
8:56 AM 42.1 °F 36.6 °F 39.0 °F 89% 30.38 in 10.0 mi ESE 9.2 mph - N/A   Overcast
9:56 AM 44.1 °F 36.8 °F 41.0 °F 89% 30.37 in 10.0 mi SE 16.1 mph - N/A   Overcast
10:56 AM 46.9 °F - 42.1 °F 83% 30.36 in 10.0 mi ESE 15.0 mph - N/A   Mostly Cloudy
11:56 AM 51.1 °F - 42.1 °F 71% 30.32 in 10.0 mi SE 16.1 mph - N/A   Mostly Cloudy
12:03 PM 50.0 °F - 42.1 °F 74% 30.30 in 10.0 mi ESE 15.0 mph - N/A   Overcast
12:42 PM 51.1 °F - 43.0 °F 74% 30.27 in 10.0 mi ESE 13.8 mph - N/A   Overcast
12:56 PM 53.1 °F - 43.0 °F 69% 30.28 in 10.0 mi SE 18.4 mph 25.3 mph N/A   Mostly Cloudy
1:56 PM 53.1 °F - 43.0 °F 69% 30.25 in 10.0 mi SE 12.7 mph - N/A   Overcast
2:56 PM 52.0 °F - 43.0 °F 71% 30.21 in 10.0 mi SE 16.1 mph - 0.00 in   Overcast
3:56 PM 52.0 °F - 44.1 °F 74% 30.18 in 10.0 mi SE 12.7 mph - 0.00 in   Overcast
4:56 PM 51.1 °F - 46.0 °F 83% 30.15 in 10.0 mi SE 13.8 mph 24.2 mph 0.02 in   Overcast
5:39 PM 51.1 °F - 45.0 °F 80% 30.11 in 10.0 mi SE 16.1 mph 23.0 mph 0.00 in   Overcast
5:56 PM 52.0 °F - 45.0 °F 77% 30.12 in 10.0 mi ESE 16.1 mph 23.0 mph 0.00 in   Overcast
6:56 PM 51.1 °F - 44.1 °F 77% 30.09 in 10.0 mi ESE 13.8 mph 24.2 mph N/A   Overcast
7:56 PM 51.1 °F - 45.0 °F 80% 30.07 in 10.0 mi SE 16.1 mph 25.3 mph N/A   Overcast
8:56 PM 51.1 °F - 44.1 °F 77% 30.07 in 10.0 mi SE 15.0 mph - 0.00 in Rain Light Rain
9:56 PM 50.0 °F - 45.0 °F 83% 30.06 in 10.0 mi SSE 13.8 mph - 0.00 in   Overcast
10:35 PM 50.0 °F - 45.0 °F 83% 30.00 in 10.0 mi SE 10.4 mph - 0.00 in Rain Light Rain
10:56 PM 50.0 °F - 45.0 °F 83% 30.01 in 10.0 mi SE 16.1 mph - 0.00 in Rain Light Rain
11:56 PM 50.0 °F - 46.0 °F 86% 29.97 in 10.0 mi SE 17.3 mph 24.2 mph 0.00 in   Overcast